1487574001.16,35019,11.88,73178.3,-2.97,-37.87,-39.03,0,*50
1487574002.4,35020,11.88,73180.0,-2.97,-37.87,-38.85,0,*55
1487574003.65,35021,11.88,73182.3,-2.97,-37.69,-38.61,0,*5E
1487574004.92,35022,11.81,73176.3,-2.95,-37.63,-38.49,0,*5F
1487574006.13,35023,11.88,73182.0,-2.91,-37.75,-38.55,0,*50
1487574007.34,35024,11.88,73180.3,-2.95,-37.45,-38.55,0,*50
1487574008.58,35025,11.88,73182.3,-2.91,-37.57,-38.49,0,*5B
1487574009.79,35026,11.88,73178.5,-2.91,-37.45,-38.35,0,*50
1487574011.03,35027,11.88,73178.8,-2.91,-37.57,-38.49,0,*59
1487574012.27,35028,11.88,73182.3,-2.91,-38.79,-39.91,0,*51
1487574013.5,35029,11.88,73176.8,-2.91,-38.49,-39.35,0,*5D
1487574014.74,35030,11.88,73176.5,-2.95,-37.99,-39.09,0,*5C
1487574015.98,35031,11.88,73180.8,-2.91,-37.63,-38.55,0,*54
1487574017.22,35032,11.88,73182.0,-2.91,-37.45,-38.49,0,*5E
1487574018.48,35033,11.88,73180.3,-2.89,-37.39,-38.43,0,*57
1487574019.71,35034,11.88,73180.0,-2.89,-37.57,-38.43,0,*58
1487574020.97,35035,11.88,73182.0,-2.89,-37.69,-38.55,0,*53
1487574022.23,35036,11.88,73178.0,-2.89,-37.57,-38.49,0,*50
1487574023.49,35037,11.88,73176.5,-2.89,-37.39,-38.43,0,*53
1487574024.73,35038,11.88,73182.3,-2.87,-37.51,-38.43,0,*5C
1487574025.96,35039,11.88,73182.5,-2.89,-38.05,-39.09,0,*52
1487574027.17,35040,11.88,73178.8,-2.87,-38.43,-39.47,0,*5A
1487574028.42,35041,11.88,73180.5,-2.87,-38.23,-39.41,0,*5B
1487574029.62,35042,11.81,73174.8,-2.87,-37.75,-38.73,0,*54
1487574030.86,35043,11.88,73180.0,-2.87,-37.57,-38.49,0,*5C
1487574032.09,35044,11.88,73180.0,-2.87,-37.39,-38.43,0,*59
1487574033.36,35045,11.88,73182.0,-2.85,-37.51,-38.43,0,*54
1487574034.62,35046,11.88,73182.0,-2.85,-37.51,-38.43,0,*57
1487574035.91,35047,11.88,73178.3,-2.85,-37.63,-38.49,0,*5D
1487574037.2,35048,11.88,73178.3,-2.85,-37.81,-38.79,0,*5D
1487574038.46,35049,11.88,73180.3,-2.85,-37.51,-38.43,0,*58
1487574039.75,35050,11.88,73176.8,-2.85,-37.51,-38.49,0,*5A
1487574041.01,35051,11.88,73176.8,-2.83,-37.51,-38.49,0,*5D
1487574042.22,35052,11.88,73178.5,-2.83,-37.87,-38.85,0,*55
1487574043.47,35053,11.88,73178.5,-2.81,-37.75,-38.79,0,*58
1487574044.7,35054,11.88,73182.5,-2.83,-38.05,-39.15,0,*5E
1487574045.93,35055,11.88,73180.3,-2.83,-37.99,-38.97,0,*5E
1487574047.16,35056,11.88,73180.0,-2.83,-38.17,-39.23,0,*5A
1487574048.42,35057,11.88,73182.3,-2.83,-37.81,-38.67,0,*5A
1487574049.68,35058,11.88,73182.3,-2.83,-37.69,-38.79,0,*5C
1487574050.92,35059,11.88,73176.8,-2.83,-37.81,-38.85,0,*58
1487574052.17,35060,11.88,73178.8,-2.81,-37.63,-38.73,0,*55
1487574053.42,35061,11.88,73180.5,-2.81,-37.63,-38.61,0,*57
1487574054.63,35062,11.88,73178.0,-2.79,-37.57,-38.55,0,*53
1487574055.89,35063,11.88,73180.3,-2.81,-37.63,-38.35,0,*54
1487574057.15,35064,11.88,73178.0,-2.81,-37.81,-38.61,0,*5E
1487574058.39,35065,11.88,73178.5,-2.79,-37.87,-38.91,0,*51
1487574059.64,35066,11.88,73180.0,-2.81,-37.99,-38.97,0,*5C
1487574060.93,35067,11.88,73178.5,-2.81,-37.81,-38.91,0,*52
1487574062.21,35068,11.88,73180.0,-2.81,-37.93,-38.91,0,*5E
1487574063.43,35069,11.88,73182.3,-2.79,-37.69,-38.73,0,*51
1487574064.69,35070,11.88,73180.3,-2.81,-38.17,-39.15,0,*59
1487574065.94,35071,11.88,73180.0,-2.79,-38.29,-39.41,0,*53
1487574067.17,35072,11.88,73180.5,-2.79,-38.67,-39.85,0,*52
1487574068.42,35073,11.88,73180.8,-2.81,-39.53,-40.65,0,*52
1487574069.67,35074,11.88,73178.3,-2.81,-38.97,-39.97,0,*5F
1487574070.93,35075,11.88,73178.5,-2.81,-38.73,-39.71,0,*5C
1487574072.17,35076,11.88,73178.3,-2.81,-38.55,-39.53,0,*5B
1487574073.46,35077,11.88,73178.0,-2.81,-39.71,-40.85,0,*58
1487574074.76,35078,11.88,73178.3,-2.81,-39.71,-40.85,0,*57
1487574076.02,35079,11.88,73178.5,-2.85,-39.71,-40.73,0,*5B
1487574077.3,35080,11.88,73178.5,-2.85,-39.71,-40.91,0,*51
1487574078.58,35081,11.88,73176.0,-2.85,-40.21,-41.55,0,*52
1487574079.86,35082,11.88,73176.3,-2.89,-39.03,-40.09,0,*5B
1487574081.1,35083,11.88,73176.0,-2.87,-38.73,-39.79,0,*5B
1487574082.35,35084,11.88,73178.0,-2.87,-38.29,-39.41,0,*58
1487574083.61,35085,11.88,73176.5,-2.87,-38.29,-39.29,0,*57
1487574084.87,35086,11.88,73178.8,-2.89,-38.55,-39.59,0,*56
1487574086.13,35087,11.88,73178.3,-2.87,-38.29,-39.41,0,*5B
1487574087.33,35088,11.88,73180.0,-2.87,-38.43,-39.47,0,*5E
1487574088.56,35089,11.88,73178.8,-2.87,-38.49,-39.47,0,*55
1487574089.83,35090,11.88,73180.0,-2.87,-38.49,-39.59,0,*52
1487574091.09,35091,11.88,73176.5,-2.85,-38.61,-39.59,0,*5B
1487574092.31,35092,11.88,73180.3,-2.87,-38.55,-39.65,0,*52
1487574093.54,35093,11.88,73176.3,-2.87,-38.73,-39.79,0,*5A
1487574094.8,35094,11.88,73176.0,-2.89,-38.67,-39.65,0,*5B
1487574096.03,35095,11.88,73176.5,-2.87,-38.55,-39.59,0,*5A
1487574097.3,35096,11.88,73182.3,-2.87,-38.49,-39.59,0,*54
1487574098.56,35097,11.88,73176.8,-2.87,-38.29,-39.59,0,*53
1487574099.76,35098,11.88,73178.3,-2.87,-38.43,-39.47,0,*5F
1487574101.03,35099,11.88,73178.3,-2.87,-38.49,-39.59,0,*5B
1487574102.29,35100,11.88,73180.3,-2.89,-38.43,-39.59,0,*5E
1487574103.49,35101,11.88,73176.3,-2.87,-38.73,-39.85,0,*53
1487574104.71,35102,11.88,73178.5,-2.87,-38.55,-39.65,0,*5A
1487574105.92,35103,11.88,73178.0,-2.87,-38.85,-39.85,0,*58
1487574107.13,35104,11.88,73174.5,-2.87,-38.85,-39.91,0,*5A
1487574108.39,35105,11.88,73178.8,-2.89,-38.91,-39.91,0,*50
1487574109.6,35106,11.88,73180.8,-2.87,-38.85,-39.85,0,*5D
1487574110.87,35107,11.88,73178.3,-2.89,-38.85,-39.79,0,*51
1487574112.1,35108,11.88,73182.3,-2.87,-38.73,-39.79,0,*59
1487574113.33,35109,11.88,73178.0,-2.89,-38.73,-39.85,0,*55
1487574114.58,35110,11.88,73178.8,-2.89,-39.03,-40.03,0,*5B
1487574115.82,35111,11.88,73176.5,-2.89,-38.85,-39.85,0,*55
1487574117.07,35112,11.88,73178.0,-2.89,-38.73,-39.79,0,*5C
1487574118.31,35113,11.88,73176.5,-2.91,-38.79,-39.91,0,*58
1487574119.55,35114,11.88,73182.5,-2.91,-39.29,-40.47,0,*5E
1487574120.81,35115,11.88,73176.5,-2.91,-38.91,-40.09,0,*57
1487574122.02,35116,11.88,73180.0,-2.91,-38.97,-39.91,0,*5D
1487574123.26,35117,11.88,73180.8,-2.91,-39.15,-40.35,0,*57
1487574124.47,35118,11.88,73178.3,-2.95,-39.35,-40.47,0,*5B
1487574125.72,35119,11.88,73182.0,-2.95,-39.85,-40.85,0,*5F
1487574126.98,35120,11.88,73176.5,-2.95,-39.29,-40.09,0,*57
1487574128.22,35121,11.88,73182.0,-2.95,-39.15,-40.15,0,*54
1487574129.48,35122,11.88,73178.3,-2.95,-39.29,-40.29,0,*57
1487574130.73,35123,11.88,73178.8,-2.97,-39.23,-40.35,0,*53
1487574132.02,35124,11.88,73182.3,-2.97,-39.03,-40.21,0,*53
1487574133.25,35125,11.88,73176.0,-2.97,-39.35,-40.35,0,*52
1487574134.51,35126,11.88,73180.0,-2.97,-39.53,-40.53,0,*51
1487574135.79,35127,11.88,73180.8,-2.97,-39.71,-40.79,0,*58
1487574137.05,35128,11.88,73182.0,-2.99,-39.53,-40.79,0,*59
1487574138.28,35129,11.88,73178.0,-2.99,-39.97,-41.11,0,*5F
1487574139.54,35130,11.88,73178.5,-3.01,-40.21,-41.29,0,*5F
1487574140.83,35131,11.88,73176.8,-3.01,-39.97,-40.97,0,*59
1487574142.08,35132,11.88,73176.3,-3.03,-39.59,-40.65,0,*57
1487574143.34,35133,11.88,73178.5,-3.03,-39.41,-40.79,0,*52
1487574144.57,35134,11.88,73174.8,-3.03,-40.41,-41.49,0,*59
1487574145.79,35135,11.88,73176.8,-3.05,-40.65,-41.73,0,*51
1487574147.06,35136,11.88,73180.3,-3.05,-40.15,-41.23,0,*50
1487574148.28,35137,11.88,73180.8,-3.07,-39.91,-40.91,0,*59
1487574149.55,35138,11.88,73180.0,-3.07,-39.71,-40.59,0,*5C
1487574150.84,35139,11.88,73178.5,-3.09,-39.71,-40.79,0,*51
1487574152.15,35140,11.88,73182.5,-3.09,-39.79,-40.97,0,*57
1487574153.42,35141,11.88,73180.5,-3.09,-39.91,-40.97,0,*50
1487574154.66,35142,11.94,73182.5,-3.11,-39.85,-40.85,0,*5C
1487574155.94,35143,11.88,73180.0,-3.11,-39.79,-40.85,0,*5E
1487574157.17,35144,11.88,73182.5,-3.11,-40.21,-41.17,0,*50
1487574158.41,35145,11.88,73182.0,-3.09,-39.91,-40.91,0,*52
1487574159.65,35146,11.94,73180.0,-3.11,-40.41,-41.49,0,*5F
1487574160.86,35147,11.88,73180.8,-3.11,-40.03,-41.17,0,*53
1487574162.13,35148,11.94,73180.3,-3.13,-39.85,-40.97,0,*57
1487574163.39,35149,11.94,73182.3,-3.13,-39.85,-40.85,0,*55
1487574164.63,35150,11.88,73180.3,-3.17,-40.03,-41.03,0,*56
1487574165.9,35151,11.88,73180.0,-3.17,-40.09,-41.11,0,*5E
1487574167.15,35152,11.88,73180.3,-3.17,-40.29,-41.29,0,*54
1487574168.41,35153,11.88,73178.3,-3.17,-40.29,-41.29,0,*55
1487574169.66,35154,11.88,73178.0,-3.19,-40.21,-41.23,0,*5E
1487574170.93,35155,11.88,73176.3,-3.21,-40.09,-41.17,0,*59
1487574172.22,35156,11.88,73182.8,-3.21,-39.97,-40.97,0,*5A
1487574173.49,35157,11.88,73180.5,-3.21,-40.09,-41.17,0,*5B
1487574174.76,35158,11.94,73180.5,-3.21,-40.09,-41.11,0,*52
1487574176.02,35159,11.94,73180.0,-3.21,-40.09,-41.17,0,*55
1487574177.25,35160,11.94,73182.0,-3.23,-40.35,-41.35,0,*52
1487574178.52,35161,11.88,73178.8,-3.25,-40.15,-41.23,0,*50
1487574179.79,35162,11.88,73178.8,-3.25,-39.85,-40.85,0,*59
1487574181.07,35163,11.88,73178.5,-3.25,-40.21,-41.23,0,*55
1487574182.34,35164,11.88,73176.3,-3.25,-40.03,-40.97,0,*5C
1487574183.62,35165,11.94,73182.5,-3.25,-40.21,-41.35,0,*54
1487574184.82,35166,11.94,73182.5,-3.27,-40.73,-41.73,0,*50
1487574186.04,35167,11.94,73182.8,-3.29,-40.53,-41.61,0,*5E
1487574187.32,35168,11.88,73180.0,-3.29,-40.21,-41.23,0,*52
1487574188.57,35169,11.88,73180.8,-3.29,-40.29,-41.41,0,*5F
1487574189.84,35170,11.88,73180.0,-3.33,-40.35,-41.55,0,*54
1487574191.09,35171,11.88,73178.3,-3.33,-40.59,-41.49,0,*52
1487574192.35,35172,11.88,73176.5,-3.33,-40.53,-41.55,0,*56
1487574193.6,35173,11.88,73176.3,-3.33,-40.15,-41.17,0,*53
1487574194.86,35174,11.94,73180.8,-3.33,-40.47,-41.35,0,*53
1487574196.09,35175,11.94,73182.3,-3.35,-40.29,-41.17,0,*5C
1487574197.38,35176,11.94,73180.3,-3.37,-40.21,-41.23,0,*52
1487574198.62,35177,11.94,73180.5,-3.37,-40.03,-41.03,0,*51
1487574199.84,35178,11.94,73180.0,-3.39,-40.79,-41.61,0,*59
1487574201.1,35179,11.94,73180.3,-3.39,-40.59,-41.55,0,*5D
1487574202.35,35180,11.94,73180.8,-3.39,-40.21,-41.35,0,*52
1487574203.63,35181,11.94,73182.3,-3.37,-40.21,-41.23,0,*5A
1487574204.86,35182,11.94,73178.8,-3.39,-40.79,-41.87,0,*54
1487574206.09,35183,11.94,73180.5,-3.39,-40.53,-41.55,0,*52
1487574207.32,35184,11.94,73178.5,-3.39,-40.35,-41.35,0,*53
1487574208.55,35185,11.94,73180.5,-3.43,-40.47,-41.49,0,*51
1487574209.75,35186,11.94,73180.8,-3.45,-40.73,-41.73,0,*5A
1487574210.95,35187,11.88,73178.0,-3.45,-40.73,-41.73,0,*5B
1487574212.15,35188,11.94,73176.8,-3.45,-40.47,-41.29,0,*5C
1487574213.39,35189,11.94,73182.0,-3.45,-40.09,-41.17,0,*5A
1487574214.61,35190,11.88,73176.3,-3.45,-40.29,-41.29,0,*5D
1487574215.84,35191,11.94,73180.5,-3.47,-40.35,-41.17,0,*5E
1487574217.1,35192,11.94,73180.0,-3.47,-40.73,-41.67,0,*58
1487574218.36,35193,11.94,73180.8,-3.49,-40.41,-41.35,0,*51
1487574219.61,35194,11.94,73182.0,-3.47,-40.35,-41.35,0,*5B
1487574220.82,35195,11.94,73178.8,-3.49,-40.53,-41.41,0,*57
1487574222.08,35196,11.94,73182.5,-3.49,-40.41,-41.35,0,*54
1487574223.34,35197,11.94,73180.3,-3.49,-40.21,-41.23,0,*54
1487574224.57,35198,11.94,73180.5,-3.49,-40.35,-41.35,0,*59
1487574225.82,35199,11.94,73180.3,-3.51,-40.15,-41.03,0,*56
1487574227.09,35200,11.94,73182.0,-3.51,-40.03,-40.97,0,*5E
1487574228.32,35201,11.94,73180.5,-3.51,-40.53,-41.41,0,*50
1487574229.58,35202,11.94,73180.5,-3.51,-40.41,-41.41,0,*50
1487574230.82,35203,11.94,73180.0,-3.53,-40.41,-41.41,0,*53
1487574232.05,35204,11.94,73182.0,-3.53,-40.59,-41.49,0,*55
1487574233.31,35205,11.94,73182.3,-3.53,-40.79,-41.67,0,*5A
1487574234.55,35206,11.94,73180.3,-3.53,-40.41,-41.49,0,*5E
1487574235.8,35207,11.94,73182.5,-3.55,-40.29,-41.41,0,*5F
1487574237.06,35208,11.94,73178.8,-3.55,-40.41,-41.29,0,*50
1487574238.29,35209,11.94,73180.5,-3.55,-40.47,-41.49,0,*51
1487574239.5,35210,11.94,73180.3,-3.57,-40.47,-41.49,0,*5B
1487574240.73,35211,11.94,73180.0,-3.57,-40.29,-41.17,0,*59
1487574241.96,35212,11.94,73180.5,-3.57,-40.65,-41.55,0,*54
1487574243.16,35213,11.94,73178.8,-3.57,-40.53,-41.49,0,*5D
1487574244.41,35214,11.94,73180.8,-3.59,-40.29,-41.49,0,*59
1487574245.66,35215,11.94,73180.0,-3.61,-40.09,-41.17,0,*5A
1487574246.89,35216,11.94,73182.5,-3.61,-40.53,-41.55,0,*50
1487574248.15,35217,11.94,73180.3,-3.59,-40.29,-41.11,0,*57
1487574249.38,35218,11.94,73182.8,-3.61,-40.35,-41.23,0,*5F
1487574250.61,35219,11.94,73182.0,-3.61,-40.53,-41.55,0,*5F
1487574251.85,35220,11.94,73182.0,-3.61,-40.35,-41.23,0,*54
1487574253.06,35221,11.94,73180.3,-3.61,-40.73,-41.73,0,*52
1487574254.29,35222,11.94,73180.8,-3.65,-40.97,-41.99,0,*5B
1487574255.59,35223,11.94,73180.3,-3.67,-40.41,-41.23,0,*52
1487574256.83,35224,11.94,73182.3,-3.67,-40.03,-41.03,0,*51
1487574258.09,35225,11.94,73182.3,-3.67,-40.21,-41.11,0,*53
1487574259.35,35226,11.94,73180.5,-3.67,-40.21,-41.03,0,*53
1487574260.65,35227,11.94,73176.0,-3.67,-40.09,-40.85,0,*57
1487574261.95,35228,11.94,73178.5,-3.67,-40.09,-40.97,0,*5B
1487574263.24,35229,11.94,73180.5,-3.67,-40.29,-41.23,0,*56
1487574264.47,35230,11.94,73176.8,-3.69,-40.35,-41.35,0,*5A
1487574265.68,35231,11.94,73180.3,-3.69,-40.47,-41.17,0,*5E
1487574266.93,35232,11.94,73178.8,-3.69,-40.09,-40.91,0,*58
1487574268.14,35233,11.94,73178.0,-3.69,-40.35,-41.17,0,*59
1487574269.35,35234,11.94,73180.5,-3.69,-40.47,-41.17,0,*5B
1487574270.61,35235,11.94,73182.5,-3.71,-40.29,-41.11,0,*5D
1487574271.84,35236,11.94,73180.3,-3.71,-40.35,-41.11,0,*53
1487574273.1,35237,11.94,73180.0,-3.71,-40.29,-41.17,0,*59
1487574274.33,35238,11.94,73180.0,-3.71,-40.35,-41.11,0,*5D
1487574275.56,35239,11.94,73180.5,-3.71,-40.47,-41.29,0,*52
1487574276.79,35240,11.94,73178.8,-3.71,-40.53,-41.29,0,*59
1487574278.08,35241,11.94,73180.0,-3.73,-40.41,-41.35,0,*54
1487574279.37,35242,11.94,73180.8,-3.73,-40.21,-40.97,0,*58
1487574280.63,35243,11.94,73182.0,-3.73,-40.21,-41.17,0,*50
1487574281.85,35244,11.94,73180.8,-3.75,-40.21,-41.11,0,*57
1487574283.07,35245,11.94,73180.8,-3.75,-40.15,-41.11,0,*51
1487574284.28,35246,11.94,73182.3,-3.75,-40.35,-41.11,0,*50
1487574285.55,35247,11.94,73178.8,-3.73,-40.35,-40.97,0,*58
1487574286.82,35248,11.94,73182.0,-3.75,-40.41,-41.23,0,*5C
1487574288.07,35249,11.94,73180.8,-3.77,-40.29,-41.17,0,*56
1487574289.3,35250,11.94,73186.3,-3.77,-40.47,-41.41,0,*55
1487574290.56,35251,11.94,73180.8,-3.77,-40.41,-41.29,0,*5C
1487574291.79,35252,11.94,73178.8,-3.79,-40.47,-41.23,0,*5D
1487574293.06,35253,11.94,73180.0,-3.79,-40.41,-41.23,0,*5A
1487574294.34,35254,11.94,73180.0,-3.77,-40.29,-41.23,0,*5D
1487574295.56,35255,11.94,73180.0,-3.79,-40.79,-41.61,0,*51
1487574296.8,35256,11.94,73180.8,-3.81,-40.47,-41.29,0,*54
1487574298.06,35257,11.94,73178.8,-3.81,-40.29,-41.11,0,*56
1487574299.28,35258,11.94,73182.0,-3.83,-40.65,-41.35,0,*55
1487574300.49,35259,11.94,73182.8,-3.83,-40.47,-41.11,0,*52
1487574301.75,35260,11.94,73180.8,-3.81,-40.35,-41.23,0,*5E
1487574302.99,35261,11.94,73182.0,-3.83,-40.29,-41.11,0,*51
1487574304.22,35262,11.94,73180.3,-3.83,-40.47,-41.23,0,*5B
1487574305.42,35263,11.94,73180.5,-3.83,-40.53,-41.29,0,*55
1487574306.72,35264,11.94,73180.3,-3.89,-40.85,-41.67,0,*59
1487574307.94,35265,11.94,73182.3,-3.87,-41.11,-41.81,0,*52
1487574309.23,35266,11.94,73180.5,-3.89,-40.85,-41.67,0,*5B
1487574310.52,35267,11.94,73182.0,-3.89,-40.59,-41.35,0,*5C
1487574311.76,35268,11.94,73182.5,-3.89,-40.65,-41.41,0,*5F
1487574313.05,35269,11.94,73180.3,-3.89,-40.41,-41.23,0,*5C
1487574314.29,35270,11.94,73180.0,-3.91,-40.41,-41.17,0,*5A
1487574315.56,35271,11.94,73182.0,-3.93,-40.91,-41.67,0,*53
1487574316.79,35272,11.94,73182.8,-3.91,-41.23,-41.99,0,*5B
1487574318.06,35273,11.94,73180.8,-3.93,-40.91,-41.67,0,*51
1487574319.29,35274,11.94,73180.5,-3.93,-40.65,-41.41,0,*59
1487574320.52,35275,11.94,73182.8,-3.93,-40.65,-41.29,0,*56
1487574321.72,35276,11.94,73176.3,-3.95,-40.53,-41.29,0,*56
1487574322.93,35277,11.94,73182.3,-3.95,-40.53,-41.29,0,*57
1487574324.13,35278,11.94,73180.8,-3.95,-40.53,-41.41,0,*56
1487574325.39,35279,12.0,73186.3,-3.97,-40.79,-41.49,0,*55
1487574326.65,35280,11.94,73182.3,-3.97,-41.17,-41.93,0,*5D
1487574327.91,35281,11.94,73184.8,-3.97,-41.11,-41.93,0,*5A
1487574329.14,35282,11.94,73184.0,-3.99,-41.11,-41.93,0,*57
1487574330.43,35283,11.94,73186.0,-4.01,-40.97,-41.67,0,*54
1487574331.67,35284,11.94,73180.0,-3.99,-40.73,-41.35,0,*58
1487574332.96,35285,11.94,73184.0,-4.01,-40.79,-41.55,0,*53
1487574334.19,35286,11.94,73180.3,-3.99,-40.59,-41.49,0,*59
1487574335.48,35287,12.0,73186.8,-4.01,-40.79,-41.55,0,*51
1487574336.71,35288,11.94,73182.5,-4.03,-41.23,-41.99,0,*52
1487574337.96,35289,11.94,73182.3,-4.05,-41.11,-41.67,0,*55
1487574339.2,35290,12.0,73184.0,-4.03,-40.59,-41.41,0,*52
1487574340.41,35291,11.94,73184.0,-4.03,-40.47,-41.03,0,*5A
1487574341.65,35292,11.94,73182.8,-4.03,-40.47,-41.35,0,*5C
1487574342.92,35293,12.0,73184.5,-4.05,-40.85,-41.67,0,*52
1487574344.17,35294,11.94,73182.3,-4.05,-40.91,-41.67,0,*50
1487574345.41,35295,11.94,73184.8,-4.09,-40.91,-41.81,0,*55
1487574346.65,35296,11.94,73182.8,-4.09,-40.91,-41.67,0,*5E
1487574347.91,35297,11.94,73182.5,-4.09,-40.59,-41.35,0,*5C
1487574349.17,35298,11.94,73184.8,-4.09,-40.97,-41.55,0,*57
1487574350.44,35299,11.94,73182.0,-4.13,-40.79,-41.55,0,*5D
1487574351.67,35300,11.94,73182.3,-4.13,-40.59,-41.49,0,*53
1487574352.91,35301,12.0,73186.3,-4.13,-40.73,-41.35,0,*51
1487574354.12,35302,12.0,73184.3,-4.13,-40.73,-41.49,0,*59
1487574355.33,35303,11.94,73182.0,-4.13,-40.53,-41.29,0,*5C
1487574356.58,35304,12.0,73184.0,-4.13,-40.59,-41.29,0,*51
1487574357.87,35305,12.0,73184.5,-4.15,-40.85,-41.55,0,*5C
1487574359.12,35306,12.0,73186.5,-4.15,-40.79,-41.61,0,*5B
1487574360.41,35307,12.0,73184.0,-4.15,-40.79,-41.55,0,*5D
1487574361.65,35308,12.0,73186.8,-4.15,-41.03,-41.73,0,*5A
1487574362.87,35309,12.0,73182.3,-4.17,-41.17,-41.61,0,*5F
1487574364.1,35310,11.94,73180.0,-4.17,-40.79,-41.41,0,*5C
1487574365.34,35311,11.94,73184.0,-4.19,-40.73,-41.41,0,*59
1487574366.6,35312,12.0,73184.0,-4.19,-41.11,-41.81,0,*53
1487574367.85,35313,11.94,73182.8,-4.19,-41.29,-41.93,0,*5A
1487574369.13,35314,12.0,73182.8,-4.19,-41.03,-41.67,0,*5E
1487574370.37,35315,12.0,73184.5,-4.21,-40.97,-41.87,0,*56
1487574371.61,35316,12.0,73182.5,-4.23,-41.17,-41.87,0,*5E
1487574372.85,35317,12.0,73184.5,-4.21,-40.91,-41.55,0,*5D
1487574374.15,35318,12.0,73184.3,-4.23,-40.97,-41.67,0,*57
1487574375.42,35319,12.0,73186.5,-4.23,-40.91,-41.67,0,*50
1487574376.66,35320,12.0,73184.3,-4.27,-41.03,-41.73,0,*51
1487574377.92,35321,12.0,73184.3,-4.27,-40.97,-41.61,0,*5F
1487574379.21,35322,12.0,73184.3,-4.27,-40.85,-41.55,0,*58
1487574380.5,35323,12.0,73184.8,-4.27,-40.85,-41.55,0,*59
1487574381.79,35324,12.0,73184.0,-4.27,-41.35,-41.93,0,*5E
1487574383.05,35325,11.94,73182.0,-4.27,-41.17,-41.81,0,*5C
1487574384.29,35326,12.0,73184.5,-4.29,-40.85,-41.49,0,*5F
1487574385.55,35327,11.94,73182.8,-4.33,-40.59,-41.23,0,*58
1487574386.79,35328,12.0,73184.0,-4.33,-40.85,-41.29,0,*5C
1487574388.0,35329,12.0,73180.8,-4.33,-40.65,-41.29,0,*53
1487574389.2,35330,12.0,73186.0,-4.33,-40.73,-41.49,0,*5A
1487574390.42,35331,12.0,73182.3,-4.33,-41.11,-41.87,0,*5C
1487574391.7,35332,12.0,73180.3,-4.35,-40.97,-41.55,0,*59
1487574392.97,35333,12.0,73186.5,-4.35,-40.73,-41.35,0,*54
1487574394.16,35334,12.0,73180.8,-4.37,-40.73,-41.29,0,*5C
1487574395.4,35335,11.94,73180.0,-4.37,-40.91,-41.55,0,*5A
1487574396.63,35336,12.0,73180.8,-4.35,-40.91,-41.49,0,*56
1487574397.87,35337,12.0,73184.8,-4.37,-40.91,-41.35,0,*5E
1487574399.08,35338,12.0,73186.0,-4.37,-40.79,-41.49,0,*5C
1487574400.31,35339,12.0,73180.8,-4.37,-40.79,-41.29,0,*5B
1487574401.58,35340,12.0,73186.8,-4.39,-40.97,-41.55,0,*50
1487574402.81,35341,12.0,73182.0,-4.39,-41.03,-41.61,0,*5A
1487574404.04,35342,12.0,73184.8,-4.41,-41.03,-41.81,0,*58
1487574405.26,35343,12.0,73182.3,-4.41,-40.97,-41.61,0,*5B
1487574406.47,35344,12.0,73186.0,-4.41,-41.03,-41.61,0,*50
1487574407.72,35345,12.0,73186.0,-4.43,-40.85,-41.41,0,*5E
1487574408.97,35346,12.0,73182.8,-4.43,-40.85,-41.41,0,*5D
1487574410.2,35347,12.0,73182.0,-4.43,-41.03,-41.61,0,*51
1487574411.46,35348,12.0,73186.5,-4.43,-41.11,-41.67,0,*5B
1487574412.66,35349,12.0,73180.5,-4.45,-41.17,-41.73,0,*5F
1487574413.86,35350,12.0,73180.5,-4.45,-41.17,-41.73,0,*57
1487574415.11,35351,12.0,73182.8,-4.47,-41.17,-41.67,0,*51
1487574416.37,35352,12.0,73182.0,-4.47,-40.91,-41.35,0,*5A
1487574417.61,35353,12.0,73182.3,-4.49,-40.91,-41.35,0,*55
1487574418.85,35354,12.0,73182.5,-4.49,-40.79,-41.35,0,*54
1487574420.11,35355,12.0,73180.8,-4.49,-40.59,-41.23,0,*50
1487574421.34,35356,12.0,73182.0,-4.49,-40.59,-41.03,0,*51
1487574422.54,35357,12.0,73182.8,-4.49,-41.17,-41.73,0,*5C
1487574423.77,35358,12.0,73180.0,-4.51,-40.91,-41.41,0,*54
1487574425.05,35359,12.0,73180.0,-4.51,-40.79,-41.23,0,*57
1487574426.29,35360,12.0,73182.3,-4.55,-40.79,-41.11,0,*58
1487574427.52,35361,12.0,73184.0,-4.51,-40.73,-41.03,0,*54
1487574428.78,35362,12.0,73184.3,-4.51,-40.59,-41.03,0,*5F
1487574430.03,35363,12.0,73184.5,-4.55,-40.85,-41.41,0,*5D
1487574431.28,35364,12.0,73186.0,-4.55,-40.85,-41.29,0,*54
1487574432.53,35365,12.0,73186.5,-4.55,-40.97,-41.41,0,*58
1487574433.76,35366,12.0,73182.8,-4.57,-40.85,-41.29,0,*54
1487574435.03,35367,12.0,73182.3,-4.59,-40.85,-41.35,0,*56
1487574436.23,35368,12.0,73180.5,-4.57,-41.11,-41.61,0,*5A
1487574437.5,35369,12.0,73182.5,-4.59,-41.35,-41.93,0,*5E
1487574438.76,35370,12.0,73184.8,-4.59,-41.17,-41.67,0,*5D
1487574439.98,35371,12.0,73182.3,-4.59,-40.91,-41.49,0,*5F
1487574441.23,35372,12.0,73184.8,-4.59,-40.73,-41.35,0,*5B
1487574442.43,35373,12.0,73184.3,-4.61,-41.17,-41.61,0,*53
1487574443.7,35374,12.0,73182.8,-4.63,-40.79,-41.23,0,*59
1487574444.95,35375,12.0,73182.5,-4.63,-40.79,-41.17,0,*5F
1487574446.2,35376,12.0,73188.3,-4.63,-41.11,-41.55,0,*55
1487574447.44,35377,12.0,73186.3,-4.63,-40.79,-41.17,0,*5D
1487574448.65,35378,12.0,73182.5,-4.65,-40.73,-41.17,0,*5E
1487574449.88,35379,12.0,73182.3,-4.65,-40.59,-41.17,0,*57
1487574451.1,35380,12.0,73186.8,-4.67,-40.65,-41.17,0,*5C
1487574452.33,35381,12.0,73180.3,-4.67,-40.65,-41.17,0,*5D
1487574453.56,35382,12.0,73182.0,-4.65,-40.73,-40.97,0,*52
1487574454.79,35383,12.0,73184.8,-4.67,-40.65,-41.17,0,*5F
1487574455.99,35384,12.0,73186.8,-4.65,-40.73,-41.11,0,*5B
1487574457.22,35385,12.0,73184.5,-4.67,-40.65,-41.17,0,*59
1487574458.47,35386,12.0,73184.5,-4.67,-40.85,-41.29,0,*59
1487574459.75,35387,12.0,73186.3,-4.67,-40.85,-41.23,0,*52
1487574460.99,35388,12.0,73182.5,-4.71,-40.91,-41.35,0,*58
1487574462.26,35389,12.0,73184.5,-4.69,-40.85,-41.23,0,*52
1487574463.49,35390,12.0,73186.8,-4.69,-41.03,-41.49,0,*59
1487574464.77,35391,12.0,73182.5,-4.73,-41.55,-42.05,0,*5B
1487574466.03,35392,12.0,73182.8,-4.73,-41.35,-41.87,0,*57
1487574467.29,35393,12.0,73180.0,-4.73,-41.23,-41.73,0,*5A
1487574468.54,35394,12.0,73182.8,-4.73,-40.85,-41.29,0,*5F
1487574469.77,35395,12.0,73180.0,-4.77,-41.29,-41.61,0,*51
1487574471.03,35396,12.0,73182.8,-4.77,-40.91,-41.35,0,*51
1487574472.29,35397,12.0,73180.0,-4.81,-41.03,-41.23,0,*54
1487574473.52,35398,12.0,73182.0,-4.81,-41.03,-41.49,0,*57
1487574474.75,35399,12.0,73184.0,-4.79,-40.97,-41.41,0,*55
1487574475.96,35400,12.0,73180.5,-4.79,-41.03,-41.49,0,*56
1487574477.21,35401,12.0,73182.0,-4.81,-40.97,-41.41,0,*54
1487574478.47,35402,12.0,73182.3,-4.81,-40.85,-41.41,0,*54
1487574479.75,35403,12.0,73182.8,-4.81,-40.97,-41.35,0,*55
1487574481.01,35404,12.0,73180.8,-4.81,-40.97,-41.41,0,*51
1487574482.24,35405,12.0,73180.8,-4.83,-40.73,-41.23,0,*5C
1487574483.45,35406,12.0,73184.8,-4.83,-41.03,-41.41,0,*5D
1487574484.68,35407,12.0,73184.0,-4.83,-41.11,-41.55,0,*5A
1487574485.91,35408,12.0,73186.8,-4.85,-40.73,-41.11,0,*56
1487574487.14,35409,12.0,73186.8,-4.85,-40.65,-41.03,0,*53
1487574488.37,35410,12.0,73186.0,-4.85,-40.65,-41.11,0,*58
1487574489.57,35411,12.0,73182.3,-4.87,-41.11,-41.49,0,*54
1487574490.8,35412,12.0,73186.8,-4.87,-40.97,-41.49,0,*58
1487574492.03,35413,12.0,73184.0,-4.87,-40.79,-41.11,0,*54
1487574493.29,35414,12.0,73182.8,-4.89,-40.79,-41.17,0,*5B
1487574494.54,35415,12.0,73186.5,-4.89,-40.79,-41.17,0,*5A
1487574495.83,35416,12.06,73182.0,-4.89,-40.59,-40.97,0,*52
1487574497.08,35417,12.06,73182.8,-4.89,-40.97,-41.49,0,*53
1487574498.37,35418,12.0,73182.8,-4.89,-40.97,-41.35,0,*57
1487574499.6,35419,12.0,73182.8,-4.89,-40.73,-41.11,0,*5A
1487574500.88,35420,12.0,73184.3,-4.93,-40.79,-41.23,0,*50